• In Schweiz
  • Länderverzeichnis
  • Für 7 Tage
  • Wassertemperatur
  • Satellitenkarten
  • Wetterkarte
  • Widgets
  • user-avatar
    Anmelden

    Stündliche Wetter Ozerki

    Heute, 24 September, Montag

    Zeit Temperatur Niederschläge Wind Luftdruck Luftfeuchtigkeit
    00:00 +13°C° 0 mm 2 m/S 748 mmHg 96%
    01:00 +13°C° 0 mm 2 m/S 748 mmHg 96%
    02:00 +13°C° 0 mm 2 m/S 748 mmHg 96%
    03:00 +13°C° 0 mm 2 m/S 748 mmHg 96%
    04:00 +12°C° 0 mm 1 m/S 748 mmHg 96%
    05:00 +12°C° 0 mm 1 m/S 748 mmHg 96%
    06:00 +13°C° 0 mm 2 m/S 748 mmHg 96%
    07:00 +13°C° 0 mm 2 m/S 748 mmHg 97%
    08:00 +15°C° 0 mm 2 m/S 748 mmHg 92%
    09:00 +17°C° 0 mm 3 m/S 748 mmHg 87%
    10:00 +18°C° 0 mm 3 m/S 748 mmHg 81%
    11:00 +20°C° 0.2 mm 3 m/S 747 mmHg 77%
    12:00 +21°C° 0.2 mm 3 m/S 747 mmHg 72%
    13:00 +22°C° 0.2 mm 3 m/S 747 mmHg 68%
    14:00 +21°C° 0.6 mm 3 m/S 747 mmHg 70%
    15:00 +21°C° 0.6 mm 3 m/S 747 mmHg 72%
    16:00 +21°C° 0.6 mm 2 m/S 747 mmHg 75%
    17:00 +19°C° 0.5 mm 2 m/S 747 mmHg 80%
    18:00 +18°C° 0.5 mm 2 m/S 747 mmHg 86%
    19:00 +16°C° 0.5 mm 2 m/S 747 mmHg 92%
    20:00 +16°C° 0 mm 2 m/S 747 mmHg 93%
    21:00 +15°C° 0 mm 2 m/S 747 mmHg 93%
    22:00 +15°C° 0 mm 2 m/S 747 mmHg 94%
    23:00 +14°C° 0 mm 2 m/S 747 mmHg 93%

    Morgen, 25 September, Dienstag

    Zeit Temperatur Niederschläge Wind Luftdruck Luftfeuchtigkeit
    00:00 +14°C° 0 mm 2 m/S 747 mmHg 93%
    01:00 +14°C° 0 mm 2 m/S 747 mmHg 93%
    02:00 +13°C° 0 mm 2 m/S 747 mmHg 92%
    03:00 +13°C° 0 mm 2 m/S 747 mmHg 92%
    04:00 +13°C° 0 mm 2 m/S 747 mmHg 91%
    05:00 +13°C° 0 mm 2 m/S 747 mmHg 90%
    06:00 +12°C° 0 mm 3 m/S 747 mmHg 88%
    07:00 +12°C° 0 mm 3 m/S 747 mmHg 86%
    08:00 +14°C° 0 mm 3 m/S 747 mmHg 77%
    09:00 +17°C° 0 mm 4 m/S 747 mmHg 69%
    10:00 +19°C° 0 mm 5 m/S 747 mmHg 60%
    11:00 +20°C° 0 mm 5 m/S 747 mmHg 55%
    12:00 +21°C° 0 mm 5 m/S 747 mmHg 51%
    13:00 +22°C° 0 mm 6 m/S 747 mmHg 46%
    14:00 +21°C° 0 mm 5 m/S 747 mmHg 49%
    15:00 +21°C° 0 mm 4 m/S 747 mmHg 52%
    16:00 +21°C° 0 mm 3 m/S 747 mmHg 54%
    17:00 +19°C° 0 mm 3 m/S 747 mmHg 58%
    18:00 +18°C° 0 mm 3 m/S 747 mmHg 62%
    19:00 +16°C° 0 mm 3 m/S 746 mmHg 66%
    20:00 +16°C° 0 mm 3 m/S 747 mmHg 66%
    21:00 +14°C° 0 mm 3 m/S 747 mmHg 67%
    22:00 +14°C° 0 mm 3 m/S 747 mmHg 68%
    23:00 +14°C° 0 mm 3 m/S 747 mmHg 69%

    übermorgen, 26 September, Mittwoch

    Zeit Temperatur Niederschläge Wind Luftdruck Luftfeuchtigkeit
    00:00 +14°C° 0 mm 3 m/S 747 mmHg 70%
    01:00 +13°C° 0 mm 4 m/S 747 mmHg 71%
    02:00 +13°C° 0 mm 4 m/S 747 mmHg 71%
    03:00 +13°C° 0 mm 4 m/S 747 mmHg 71%
    04:00 +13°C° 0 mm 4 m/S 747 mmHg 71%
    05:00 +13°C° 0 mm 4 m/S 747 mmHg 72%
    06:00 +13°C° 0 mm 4 m/S 747 mmHg 72%
    07:00 +13°C° 0 mm 4 m/S 747 mmHg 73%
    08:00 +14°C° 0 mm 4 m/S 747 mmHg 69%
    09:00 +15°C° 0 mm 5 m/S 747 mmHg 65%
    10:00 +16°C° 0 mm 5 m/S 747 mmHg 62%
    11:00 +16°C° 0 mm 5 m/S 748 mmHg 61%
    12:00 +16°C° 0 mm 5 m/S 748 mmHg 61%
    13:00 +16°C° 0 mm 5 m/S 748 mmHg 61%
    14:00 +17°C° 0 mm 4 m/S 748 mmHg 62%
    15:00 +17°C° 0 mm 4 m/S 748 mmHg 63%
    16:00 +17°C° 0 mm 3 m/S 748 mmHg 65%
    17:00 +16°C° 0.2 mm 3 m/S 748 mmHg 72%
    18:00 +14°C° 0.2 mm 2 m/S 749 mmHg 80%
    19:00 +13°C° 0.2 mm 2 m/S 749 mmHg 88%
    20:00 +13°C° 0.1 mm 2 m/S 749 mmHg 89%
    21:00 +12°C° 0.1 mm 2 m/S 749 mmHg 90%
    22:00 +12°C° 0.1 mm 2 m/S 749 mmHg 92%
    23:00 +10°C° 0.3 mm 2 m/S 749 mmHg 92%

    27 September, Donnerstag

    Zeit Temperatur Niederschläge Wind Luftdruck Luftfeuchtigkeit
    00:00 +10°C° 0.3 mm 2 m/S 749 mmHg 93%
    01:00 +10°C° 0.3 mm 2 m/S 749 mmHg 93%
    02:00 +9°C° 0.5 mm 2 m/S 749 mmHg 93%
    03:00 +9°C° 0.5 mm 2 m/S 748 mmHg 94%
    04:00 +9°C° 0.5 mm 2 m/S 748 mmHg 94%
    05:00 +9°C° 0.5 mm 2 m/S 748 mmHg 94%
    06:00 +9°C° 0.5 mm 3 m/S 748 mmHg 93%
    07:00 +8°C° 0.5 mm 3 m/S 748 mmHg 93%
    08:00 +9°C° 0.2 mm 3 m/S 748 mmHg 89%
    09:00 +8°C° 0.2 mm 4 m/S 748 mmHg 85%
    10:00 +10°C° 0.2 mm 4 m/S 748 mmHg 81%
    11:00 +10°C° 0.1 mm 4 m/S 747 mmHg 77%
    12:00 +10°C° 0.1 mm 4 m/S 747 mmHg 73%
    13:00 +10°C° 0.1 mm 5 m/S 747 mmHg 69%
    14:00 +10°C° 0 mm 4 m/S 746 mmHg 70%
    15:00 +10°C° 0 mm 4 m/S 746 mmHg 72%
    16:00 +10°C° 0 mm 4 m/S 746 mmHg 73%
    17:00 +8°C° 0 mm 4 m/S 746 mmHg 76%
    18:00 +7°C° 0 mm 4 m/S 746 mmHg 79%
    19:00 +6°C° 0 mm 4 m/S 745 mmHg 82%
    20:00 +6°C° 0 mm 4 m/S 745 mmHg 82%
    21:00 +6°C° 0 mm 4 m/S 744 mmHg 81%
    22:00 +5°C° 0 mm 4 m/S 744 mmHg 80%
    23:00 +5°C° 0 mm 4 m/S 743 mmHg 79%

    28 September, Freitag

    Zeit Temperatur Niederschläge Wind Luftdruck Luftfeuchtigkeit
    00:00 +5°C° 0 mm 4 m/S 743 mmHg 77%
    01:00 +5°C° 0 mm 5 m/S 742 mmHg 75%
    02:00 +5°C° 0.2 mm 5 m/S 742 mmHg 77%
    03:00 +5°C° 0.2 mm 5 m/S 741 mmHg 78%
    04:00 +4°C° 0.2 mm 6 m/S 740 mmHg 80%
    05:00 +4°C° 0.5 mm 6 m/S 740 mmHg 82%
    06:00 +5°C° 0.5 mm 5 m/S 739 mmHg 85%
    07:00 +5°C° 0.5 mm 5 m/S 739 mmHg 88%
    08:00 +5°C° 0.5 mm 5 m/S 739 mmHg 88%
    09:00 +5°C° 0.5 mm 5 m/S 739 mmHg 87%
    10:00 +6°C° 0.5 mm 5 m/S 738 mmHg 87%
    11:00 +5°C° 0.4 mm 6 m/S 739 mmHg 85%
    12:00 +5°C° 0.4 mm 6 m/S 739 mmHg 83%
    13:00 +7°C° 0.4 mm 6 m/S 739 mmHg 81%
    14:00 +7°C° 0.3 mm 5 m/S 739 mmHg 78%
    15:00 +7°C° 0.3 mm 5 m/S 740 mmHg 76%
    16:00 +8°C° 0.3 mm 5 m/S 740 mmHg 73%
    17:00 +7°C° 0 mm 4 m/S 740 mmHg 77%
    18:00 +5°C° 0 mm 4 m/S 741 mmHg 82%
    19:00 +4°C° 0 mm 3 m/S 741 mmHg 86%
    20:00 +4°C° 0 mm 3 m/S 741 mmHg 87%
    21:00 +4°C° 0 mm 3 m/S 741 mmHg 87%
    22:00 +4°C° 0 mm 3 m/S 741 mmHg 87%
    23:00 +4°C° 0.2 mm 3 m/S 740 mmHg 89%

    29 September, Samstag

    Zeit Temperatur Niederschläge Wind Luftdruck Luftfeuchtigkeit
    00:00 +5°C° 0.2 mm 3 m/S 739 mmHg 91%
    01:00 +5°C° 0.2 mm 4 m/S 739 mmHg 93%
    02:00 +5°C° 1.7 mm 4 m/S 737 mmHg 93%
    03:00 +6°C° 1.7 mm 5 m/S 736 mmHg 93%
    04:00 +6°C° 1.7 mm 5 m/S 735 mmHg 93%
    05:00 +7°C° 0.7 mm 6 m/S 735 mmHg 91%
    06:00 +6°C° 0.7 mm 7 m/S 734 mmHg 89%
    07:00 +7°C° 0.7 mm 8 m/S 734 mmHg 86%
    08:00 +6°C° 0.2 mm 8 m/S 735 mmHg 86%
    09:00 +6°C° 0.2 mm 8 m/S 736 mmHg 85%
    10:00 +5°C° 0.2 mm 8 m/S 737 mmHg 85%
    11:00 +5°C° 0.2 mm 8 m/S 739 mmHg 83%
    12:00 +5°C° 0.2 mm 8 m/S 740 mmHg 81%
    13:00 +5°C° 0.2 mm 8 m/S 742 mmHg 79%
    14:00 +5°C° 0 mm 7 m/S 743 mmHg 77%
    15:00 +5°C° 0 mm 6 m/S 744 mmHg 75%
    16:00 +5°C° 0 mm 6 m/S 745 mmHg 73%
    17:00 +5°C° 0 mm 5 m/S 746 mmHg 77%
    18:00 +5°C° 0 mm 4 m/S 747 mmHg 80%
    19:00 +4°C° 0 mm 3 m/S 748 mmHg 83%
    20:00 +4°C° 0 mm 2 m/S 748 mmHg 85%
    21:00 +3°C° 0 mm 2 m/S 749 mmHg 87%
    22:00 +3°C° 0 mm 2 m/S 749 mmHg 90%
    23:00 +2°C° 0 mm 2 m/S 749 mmHg 90%
    Mehr zeigen